Location: San Antonio
(29.4240°N, 98.4930°W)
Time: 07:04:32
(UTC-05:00)

deb Explorer IX - Visible Passes

Search period start: 15 May 2025 00:00
Search period end: 25 May 2025 00:00
Orbit: 386 x 450 km, 38.6° (Epoch: 05 May)

Date Brightness Start Highest point End Pass type
(mag) Time Alt. Az. Time Alt. Az. Time Alt. Az.
15 May ? 05:58:27 10° SSE 05:59:25 11° SE 06:00:23 10° ESE visible
17 May ? 05:32:47 15° S 05:34:20 22° SE 05:36:49 10° E visible
18 May ? 06:05:19 10° WSW 06:08:23 90° W 06:11:29 10° ENE visible
19 May ? 05:04:42 40° SSE 05:04:43 40° SSE 05:07:39 10° ENE visible
20 May ? 05:34:52 23° W 05:36:33 52° NNW 05:39:33 10° NE visible
21 May ? 04:32:03 28° ENE 04:32:03 28° ENE 04:33:41 10° ENE visible
21 May ? 06:04:53 10° WNW 06:07:23 22° NNW 06:09:51 10° NE visible
22 May ? 04:59:53 35° NW 05:00:10 36° NNW 05:03:01 10° NE visible
23 May ? 03:54:54 11° ENE 03:54:54 11° ENE 03:55:04 10° ENE visible
23 May ? 05:26:32 10° WNW 05:28:43 19° NNW 05:30:58 10° NE visible
24 May ? 04:20:27 21° NNE 04:20:27 21° NNE 04:21:59 10° NE visible
24 May ? 05:54:25 10° NW 05:56:12 14° N 05:57:57 10° NNE visible
